User: anonymous   Login
Location: Unspecified
(43.4354°N, 0.0000°E)
Time: 22:40:19
(UTC+00:00)
Language:

LilacSat-2 - Orbit

View from above orbital plane
View from above orbital plane
View from above satellite
View from above satellite

Ground track
Ground track

The orbit data is extracted from the following two-line orbital elements,

1 40908U 15049K   19200.47396823  .00000521  00000-0  32382-4 0  9994
2 40908  97.4783 200.5363 0017413  95.2999  56.9259 15.13815414211462
Epoch (UTC): 19 July 2019 11:22:30
Eccentricity: 0.0017413
inclination: 97.4783°
perigee height: 512 km
apogee height: 536 km
right ascension of ascending node: 200.5363°
argument of perigee: 95.2999°
revolutions per day: 15.13815414
mean anomaly at epoch: 56.9259°
orbit number at epoch: 21146

The dashed part of the orbit path shows where the satellite is in the earth's shadow,  

DLR